Accueil
METAR-TAF:

METAR-TAF

Aéroports :

Nevers, France

Aéroport de Nevers-Fourchambault

latitude: 47-00N, longitude: 003-06E, altitude: 180 m

Observation

Le bulletin a été fait il y a 9 heures et 48 minutes, à 18:00 UTC
Vent 3 kt de sud
Température 23°C
Humidité 53%
Pression 1014 hPa
Visibilité 10 km ou plus
pas de nuages en-dessous de 1500 mètres et pas de cumulonimbus.

METAR: LFQG 221800Z AUTO 19003KT CAVOK 23/13 Q1014

Heure: 05:48 (03:48 UTC)


TAF: absent

Observations et prévisions météorologiques de plus de 4000 aéroports (messages METAR et TAF).

Les stations disponibles sont représentées par des disques jaunes et rouges sur la carte.

Passer la souris dessus pour voir le nom de la station.

Cliquer dessus pour voir les observations et prévisions météorologiques.

Pour changer de carte: cliquez sur les boutons verts avec une croix noire pour zoomer, sur le bouton vert avec un tiret pour effectuer un zoom arrière, ou sur les flèches vertes pour les cartes adjacentes.


METAR-TAF: